When you browse on this site, cookies collect data to enhance your experience and personalize the content and advertising you see.
Visit our Privacy Policy to learn more. By continuing to use the site, you agree to this use of cookies and data.
  • In Österreich
  • Länderverzeichnis
  • Für 7 Tage
  • Wassertemperatur
  • Satellitenkarten
  • Wetterkarte
  • News
  • Widgets
  • user-avatar
    Anmelden

    Stündliche Wetter Qala i Naw

    Heute, 26 Juni, Mittwoch

    Zeit Temperatur Niederschläge Wind Luftdruck Luftfeuchtigkeit
    00:00 +23°C° 0 mm 1 m/S 679 mmHg 18%
    01:00 +23°C° 0 mm 1 m/S 679 mmHg 19%
    02:00 +20°C° 0 mm 0 m/S 679 mmHg 19%
    03:00 +19°C° 0 mm 0 m/S 678 mmHg 20%
    04:00 +19°C° 0 mm 0 m/S 678 mmHg 20%
    05:00 +23°C° 0 mm 1 m/S 679 mmHg 18%
    06:00 +26°C° 0 mm 1 m/S 680 mmHg 15%
    07:00 +28°C° 0 mm 1 m/S 681 mmHg 13%
    08:00 +30°C° 0 mm 2 m/S 681 mmHg 12%
    09:00 +33°C° 0 mm 4 m/S 681 mmHg 10%
    10:00 +34°C° 0 mm 5 m/S 681 mmHg 9%
    11:00 +35°C° 0 mm 6 m/S 681 mmHg 9%
    12:00 +36°C° 0 mm 7 m/S 681 mmHg 8%
    13:00 +38°C° 0 mm 7 m/S 681 mmHg 7%
    14:00 +38°C° 0 mm 7 m/S 681 mmHg 7%
    15:00 +38°C° 0 mm 7 m/S 680 mmHg 7%
    16:00 +38°C° 0 mm 7 m/S 680 mmHg 7%
    17:00 +35°C° 0 mm 6 m/S 680 mmHg 7%
    18:00 +33°C° 0 mm 5 m/S 680 mmHg 8%
    19:00 +30°C° 0 mm 4 m/S 680 mmHg 9%
    20:00 +28°C° 0 mm 3 m/S 679 mmHg 10%
    21:00 +26°C° 0 mm 2 m/S 679 mmHg 12%
    22:00 +24°C° 0 mm 1 m/S 679 mmHg 13%
    23:00 +23°C° 0 mm 1 m/S 678 mmHg 14%

    Morgen, 27 Juni, Donnerstag

    Zeit Temperatur Niederschläge Wind Luftdruck Luftfeuchtigkeit
    00:00 +23°C° 0 mm 1 m/S 678 mmHg 15%
    01:00 +22°C° 0 mm 1 m/S 678 mmHg 16%
    02:00 +22°C° 0 mm 1 m/S 677 mmHg 17%
    03:00 +21°C° 0 mm 1 m/S 677 mmHg 17%
    04:00 +18°C° 0 mm 0 m/S 677 mmHg 18%
    05:00 +23°C° 0 mm 1 m/S 678 mmHg 16%
    06:00 +26°C° 0 mm 1 m/S 678 mmHg 13%
    07:00 +29°C° 0 mm 1 m/S 679 mmHg 11%
    08:00 +30°C° 0 mm 2 m/S 679 mmHg 11%
    09:00 +33°C° 0 mm 3 m/S 679 mmHg 10%
    10:00 +34°C° 0 mm 4 m/S 680 mmHg 10%
    11:00 +35°C° 0 mm 5 m/S 679 mmHg 10%
    12:00 +38°C° 0 mm 7 m/S 679 mmHg 10%
    13:00 +39°C° 0 mm 8 m/S 679 mmHg 9%
    14:00 +39°C° 0 mm 8 m/S 678 mmHg 10%
    15:00 +39°C° 0 mm 8 m/S 678 mmHg 10%
    16:00 +39°C° 0 mm 9 m/S 678 mmHg 10%
    17:00 +36°C° 0 mm 7 m/S 678 mmHg 12%
    18:00 +35°C° 0 mm 6 m/S 677 mmHg 13%
    19:00 +33°C° 0 mm 5 m/S 677 mmHg 14%
    20:00 +30°C° 0 mm 4 m/S 677 mmHg 16%
    21:00 +29°C° 0 mm 3 m/S 677 mmHg 17%
    22:00 +27°C° 0 mm 2 m/S 677 mmHg 19%
    23:00 +26°C° 0 mm 2 m/S 677 mmHg 20%

    übermorgen, 28 Juni, Freitag

    Zeit Temperatur Niederschläge Wind Luftdruck Luftfeuchtigkeit
    00:00 +25°C° 0 mm 1 m/S 676 mmHg 22%
    01:00 +24°C° 0 mm 1 m/S 676 mmHg 23%
    02:00 +24°C° 0 mm 1 m/S 676 mmHg 24%
    03:00 +23°C° 0 mm 1 m/S 675 mmHg 24%
    04:00 +23°C° 0 mm 1 m/S 675 mmHg 25%
    05:00 +25°C° 0 mm 1 m/S 676 mmHg 22%
    06:00 +28°C° 0 mm 2 m/S 677 mmHg 19%
    07:00 +31°C° 0 mm 2 m/S 678 mmHg 15%
    08:00 +33°C° 0 mm 3 m/S 678 mmHg 14%
    09:00 +35°C° 0 mm 4 m/S 678 mmHg 13%
    10:00 +36°C° 0 mm 5 m/S 678 mmHg 12%
    11:00 +38°C° 0 mm 6 m/S 678 mmHg 11%
    12:00 +39°C° 0 mm 7 m/S 678 mmHg 11%
    13:00 +41°C° 0 mm 8 m/S 678 mmHg 10%
    14:00 +40°C° 0 mm 8 m/S 677 mmHg 10%
    15:00 +40°C° 0 mm 7 m/S 677 mmHg 10%
    16:00 +40°C° 0 mm 7 m/S 677 mmHg 10%
    17:00 +39°C° 0 mm 6 m/S 677 mmHg 11%
    18:00 +36°C° 0 mm 6 m/S 677 mmHg 13%
    19:00 +34°C° 0 mm 5 m/S 676 mmHg 15%
    20:00 +32°C° 0 mm 4 m/S 676 mmHg 18%
    21:00 +29°C° 0 mm 3 m/S 676 mmHg 21%
    22:00 +28°C° 0 mm 2 m/S 676 mmHg 24%
    23:00 +27°C° 0 mm 2 m/S 676 mmHg 26%

    29 Juni, Samstag

    Zeit Temperatur Niederschläge Wind Luftdruck Luftfeuchtigkeit
    00:00 +26°C° 0 mm 2 m/S 676 mmHg 28%
    01:00 +26°C° 0 mm 2 m/S 676 mmHg 30%
    02:00 +25°C° 0 mm 2 m/S 675 mmHg 31%
    03:00 +25°C° 0 mm 1 m/S 675 mmHg 31%
    04:00 +24°C° 0 mm 1 m/S 675 mmHg 31%
    05:00 +27°C° 0 mm 1 m/S 676 mmHg 27%
    06:00 +29°C° 0 mm 1 m/S 676 mmHg 23%
    07:00 +31°C° 0 mm 1 m/S 677 mmHg 19%
    08:00 +34°C° 0 mm 2 m/S 677 mmHg 18%
    09:00 +35°C° 0 mm 3 m/S 677 mmHg 17%
    10:00 +37°C° 0 mm 4 m/S 677 mmHg 16%
    11:00 +38°C° 0 mm 4 m/S 677 mmHg 15%
    12:00 +40°C° 0 mm 5 m/S 677 mmHg 15%
    13:00 +41°C° 0 mm 6 m/S 677 mmHg 14%
    14:00 +41°C° 0 mm 6 m/S 677 mmHg 13%
    15:00 +41°C° 0 mm 6 m/S 677 mmHg 13%
    16:00 +41°C° 0 mm 7 m/S 676 mmHg 13%
    17:00 +39°C° 0 mm 6 m/S 676 mmHg 14%
    18:00 +37°C° 0 mm 5 m/S 676 mmHg 16%
    19:00 +35°C° 0 mm 4 m/S 676 mmHg 18%
    20:00 +33°C° 0 mm 3 m/S 676 mmHg 21%
    21:00 +30°C° 0 mm 2 m/S 676 mmHg 24%
    22:00 +28°C° 0 mm 1 m/S 676 mmHg 27%
    23:00 +27°C° 0 mm 1 m/S 675 mmHg 27%

    30 Juni, Sonntag

    Zeit Temperatur Niederschläge Wind Luftdruck Luftfeuchtigkeit
    00:00 +27°C° 0 mm 1 m/S 675 mmHg 28%
    01:00 +24°C° 0 mm 0 m/S 675 mmHg 29%
    02:00 +24°C° 0 mm 0 m/S 674 mmHg 30%
    03:00 +23°C° 0 mm 0 m/S 674 mmHg 31%
    04:00 +23°C° 0 mm 0 m/S 674 mmHg 32%
    05:00 +25°C° 0 mm 0 m/S 675 mmHg 28%
    06:00 +30°C° 0 mm 1 m/S 676 mmHg 23%
    07:00 +33°C° 0 mm 1 m/S 677 mmHg 19%
    08:00 +35°C° 0 mm 2 m/S 677 mmHg 17%
    09:00 +37°C° 0 mm 2 m/S 677 mmHg 15%
    10:00 +39°C° 0 mm 3 m/S 677 mmHg 12%
    11:00 +41°C° 0 mm 5 m/S 677 mmHg 11%
    12:00 +43°C° 0 mm 7 m/S 677 mmHg 9%
    13:00 +44°C° 0 mm 8 m/S 677 mmHg 7%
    14:00 +44°C° 0 mm 9 m/S 677 mmHg 7%
    15:00 +44°C° 0 mm 9 m/S 677 mmHg 7%
    16:00 +44°C° 0 mm 9 m/S 677 mmHg 7%
    17:00 +41°C° 0 mm 8 m/S 677 mmHg 8%
    18:00 +39°C° 0 mm 6 m/S 677 mmHg 9%
    19:00 +36°C° 0 mm 5 m/S 677 mmHg 9%
    20:00 +35°C° 0 mm 4 m/S 677 mmHg 11%
    21:00 +33°C° 0 mm 3 m/S 677 mmHg 12%
    22:00 +30°C° 0 mm 2 m/S 676 mmHg 14%
    23:00 +29°C° 0 mm 2 m/S 676 mmHg 14%

    1 Juli, Montag

    Zeit Temperatur Niederschläge Wind Luftdruck Luftfeuchtigkeit
    00:00 +28°C° 0 mm 2 m/S 676 mmHg 15%
    01:00 +27°C° 0 mm 1 m/S 675 mmHg 15%
    02:00 +27°C° 0 mm 1 m/S 675 mmHg 15%
    03:00 +26°C° 0 mm 1 m/S 675 mmHg 16%
    04:00 +26°C° 0 mm 1 m/S 675 mmHg 16%
    05:00 +28°C° 0 mm 1 m/S 676 mmHg 14%
    06:00 +31°C° 0 mm 2 m/S 677 mmHg 12%
    07:00 +35°C° 0 mm 2 m/S 678 mmHg 10%
    08:00 +37°C° 0 mm 2 m/S 678 mmHg 9%
    09:00 +39°C° 0 mm 3 m/S 678 mmHg 8%
    10:00 +42°C° 0 mm 4 m/S 678 mmHg 7%
    11:00 +43°C° 0 mm 5 m/S 678 mmHg 7%
    12:00 +45°C° 0 mm 6 m/S 678 mmHg 7%
    13:00 +46°C° 0 mm 7 m/S 678 mmHg 7%
    14:00 +46°C° 0 mm 8 m/S 678 mmHg 7%
    15:00 +47°C° 0 mm 9 m/S 677 mmHg 7%
    16:00 +47°C° 0 mm 10 m/S 677 mmHg 7%
    17:00 +44°C° 0 mm 8 m/S 677 mmHg 8%
    18:00 +41°C° 0 mm 7 m/S 677 mmHg 9%
    19:00 +39°C° 0 mm 6 m/S 677 mmHg 10%
    20:00 +36°C° 0 mm 5 m/S 677 mmHg 12%
    21:00 +34°C° 0 mm 4 m/S 677 mmHg 13%
    22:00 +32°C° 0 mm 2 m/S 677 mmHg 14%
    23:00 +31°C° 0 mm 2 m/S 677 mmHg 15%
    Mehr zeigen